Search your local weather  

 

Hazardous Weather Conditions

No active alerts for PHOENIX, ARIZONA

Current Conditions: PHOENIX, ARIZONA

Fair


95.0 F

Last Updated on Sep 22 2020, 6:53 pm MST
Humidity: 19%
Wind Speed: W 4.6 mph
Barometer 29.90 in
Dewpoint: 46.9 F
Visibility: 10.00 mi
Precip: --
Heat Index: 91 F
Wind Chill: NA
Current conditions at:

Phoenix, Phoenix-Deer Valley Municipal Airport, AZ (KDVT)

Lat: 33.69026 Lon: -112.06618

Local Radar Image active severe weather and emergency alerts image image weather storm and storm spotter reports image weather observation monitoring service image
Local
Radar
Active
Alerts
Storm Reports Weather
Monitoring

5 Day Forecast for PHOENIX, ARIZONA (85001)

Tuesday

Slight Chance of Showers
High 103 °F
Tuesday
Night
Mostly Clear

Low 78 °F
Wednesday

Sunny

High 103 °F
Wednesday
Night
Clear

Low 77 °F
Thursday

Sunny

High 105 °F
Thursday
Night
Clear

Low 77 °F
Friday

Sunny

High 104 °F
Friday
Night
Clear

Low 75 °F
Saturday

Sunny

High 102 °F

Sign-up For Email & Text Message Weather Alert Notification Services



Advertise Here

Observation History for PHOENIX, ARIZONA


Time Wind
(mph)
Vis
(mi)
Weather Precip (in) Temperature (F) Relative
Humidity
Wind
Chill
(F)
Heat
Index
(F)
Pressure
Air Dwpt altimeter
(in)
sea level
(mb)
6:53 pm MST W 4.6 10.00 Fair -- 95.0 46.9 19% NA 91 29.90 1009.8
5:53 pm MST W 6.9 10.00 Fair -- 97.0 46.0 17% NA 93 29.90 1009.6
4:53 pm MST W 4.6 10.00 Fair -- 97.0 46.9 18% NA 93 29.90 1009.7
3:53 pm MST W 4.6 10.00 A Few Clouds -- 98.0 46.9 17% NA 94 29.91 1009.9
2:53 pm MST W 3.5 10.00 Fair -- 96.0 50.0 21% NA 93 29.93 1010.7
1:53 pm MST S 6.9 10.00 Fair -- 97.0 51.1 21% NA 94 29.95 1011.3
12:53 pm MST SW 10.4 10.00 Fair -- 96.0 50.0 21% NA 93 29.98 1012.3
11:53 am MST SE 10.4 G 19.6 10.00 Fair -- 96.0 50.0 21% NA 93 30.00 1013.1
10:53 am MST E 5.8 10.00 Fair -- 94.0 51.1 23% NA 91 30.01 1013.6
8:53 am MST NW 6.9 10.00 A Few Clouds -- 87.0 53.1 31% NA 85 30.03 1014.3
7:53 am MST SW 10.4 10.00 Partly Cloudy -- 85.0 50.0 30% NA 83 30.02 1013.9
6:53 am MST N 4.6 9.00 Mostly Cloudy -- 85.0 52.0 32% NA 83 29.98 1012.4
5:53 am MST NE 3.5 8.00 Fair -- 86.0 48.9 28% NA 83 29.96 1011.7
4:53 am MST N 4.6 10.00 Fair -- 83.0 46.0 27% NA 81 29.95 1011.4
3:53 am MST NE 5.8 10.00 Fair -- 82.0 46.0 28% NA 80 29.93 1010.7
2:53 am MST N 0.0 10.00 Fair -- 82.0 45.0 27% NA 80 29.93 1010.8
1:53 am MST N 0.0 10.00 A Few Clouds -- 82.0 44.1 26% NA 80 29.92 1010.4
12:53 am MST N 0.0 10.00 Fair -- 85.0 44.1 24% NA 82 29.91 1010.1
11:53 pm MST NE 6.9 10.00 Fair -- 84.0 45.0 25% NA 82 29.91 1010.0
10:53 pm MST N 5.8 10.00 Fair -- 85.0 46.0 26% NA 82 29.91 1010.1
9:53 pm MST N 0.0 10.00 Fair -- 86.0 45.0 24% NA 83 29.90 1009.8
8:53 pm MST N 0.0 10.00 Fair -- 89.0 45.0 22% NA 86 29.89 1009.5
7:53 pm MST W 4.6 10.00 Fair -- 93.0 46.0 20% NA 89 29.88 1009.1

Regional Weather Observation

Glendale, Glendale Municipal Airport, AZ (KGEU)

A Few Clouds
97.0 F

Luke Air Force Base / Phoenix, AZ (KLUF)

Fair
94.0 F

Phoenix, Phoenix Sky Harbor International Airport, AZ (KPHX)

A Few Clouds
98.0 F

Goodyear Municipal, AZ (KGYR)

A Few Clouds
97.0 F

Buckeye Municipal Airport, AZ (KBXK)

Fair
93.0 F

Scottsdale Airport, AZ (KSDL)

Fair
95.0 F

Advertise Here


Advertise Here